JILIN-01 KUANFU 02B 5

导读 | 星芒AI

JILIN-01 KUANFU 02B 5 是吉林一号宽幅02B系列高分辨率光学遥感卫星之一,由中国长光卫星技术有限公司研制。该卫星具备高分辨率、宽视场和快速成像能力,主要用于提供高精度遥感数据,服务于农业、林业、城市规划、灾害监测等多个领域。其发射进一步增强了吉林一号星座的综合观测能力,提升了我国商业遥感数据的获取效率和应用水平。

基本信息
目录编号:
61193
目录名称:
JILIN-01 KUANFU 02B 5
国际标识:
2024-169E
轨道中心:
EARTH
卫星名称:
JILIN-01 KUANFU 02B 5
卫星全名:
JILIN-01 KUANFU 02B 5
卫星状态:
在轨 (已飞行393 天)
发射日期:
2024-09-20 UTC
国别 :
中国 (CN)
星等 :
--
轨道信息
数据来源 国际轨道数据
星历时间: 2025-10-18T07:13:19+0800
6小时前
查看轨道信息
半长轴: 6913.984km
偏心率: 0.0006583
轨道倾角: 97.580°
近地点辐角 84.030°
升交点赤经 18.860°
平近点角 276.168°
近地点: 531.297km
远地点: 540.401km
周期: 95.357分钟
每日圈数: 15.101157
详细信息
使用方式:
暂无
2D轨道图
3D轨道图
轨道高度分析图
轨道倾角分析图
轨道综合分析图
查看轨道综合分析图